SBURSBUL

Guest
Details From SBUR - Uberaba
To SBUL - Ten Cel Av Cesar Bombonato
Flight Number -
Tags Routegen Generated
Created
Modified
Stats Distance 56 nm / 103 km
Max Altitude 100 ft / 30 m
Waypoints 8
Social Downloads 2
Likes 0
Share VATSIM

Download

Looking for another format? Having issues loading an existing format? Contact us
Advertisement - Login to hide

Notes

Departing runway 32 SBUR. Arriving runway 2 SBUL.

Route

SBUR -19.70_-048.01 -19.64_-048.02 -19.36_-048.13 -19.07_-048.24 -19.02_-048.26 -18.96_-048.26 SBUL

ID Type Via Altitude Latitude Longitude Leg Dist Tot Dist Heading (true) Name
O SBUR APT - 0 ft / 0 m -19.75819˚ -47.96911˚ - 0 nm - -
-19.70_-048.01 LATLON - 100 ft / 30 m -19.69612˚ -48.00862˚ 4 nm 4 nm 329° / 329° -
-19.64_-048.02 LATLON - 100 ft / 30 m -19.63927˚ -48.02028˚ 3 nm 7 nm 349° / 349° -
-19.36_-048.13 LATLON - 100 ft / 30 m -19.35506˚ -48.13157˚ 18 nm 26 nm 340° / 340° -
-19.07_-048.24 LATLON - 100 ft / 30 m -19.07086˚ -48.24287˚ 18 nm 44 nm 340° / 340° -
-19.02_-048.26 LATLON - 100 ft / 30 m -19.01563˚ -48.26124˚ 3 nm 47 nm 343° / 343° -
-18.96_-048.26 LATLON - 100 ft / 30 m -18.95779˚ -48.25851˚ 3 nm 51 nm 3° / 3° -
O SBUL APT - 0 ft / 0 m -18.89096˚ -48.22916˚ 4 nm 55 nm 23° / 23° -

Altitude Profile

Advertisement - Login to hide

SBUR

Details ICAO SBUR (UBA)
Name Uberaba
Region Brazil
Timezone America/Sao_Paulo (UTC-3.0)
Stats Elevation 2,655 ft / 809 m (AMSL)
Location -19.765000° -47.964777°
Runways 1
Magnetic Variation 21.337° W

METAR

SBUR 221500Z 32005KT CAVOK 23/04 Q1021

Decode

TAF

TAF SBUR 221022Z 2212/2224 04005KT CAVOK TN16/2212Z TX26/2218Z BECMG 2213/2215 30005KT BECMG 2215/2219 20005KT RMK PGQ

Decode

Departure Runways

ID Width Length Bearing (true) Bearing (mag) Surface Threshold Offset Overrun Length
17 148 ft / 45 m 5,791 ft / 1,765 m 149.07° 170.41° Asphalt 0 ft / 0 m 0 ft / 0 m
35 148 ft / 45 m 5,791 ft / 1,765 m 329.07° 350.41° Asphalt 0 ft / 0 m 0 ft / 0 m

SBUL

Details ICAO SBUL (UDI)
Name TEN CEL AV CESAR BOMBONATO
Region Brazil
Timezone America/Sao_Paulo (UTC-3.0)
Stats Elevation 3,094 ft / 943 m (AMSL)
Location -18.882843° -48.225593°
Runways 1
Magnetic Variation 21.309° W

METAR

Not found

TAF

TAF SBUL 221022Z 2212/2224 13005KT CAVOK TN15/2212Z TX25/2219Z BECMG 2213/2215 03005KT RMK PGQ

Decode

Destination Runways

ID Width Length Bearing (true) Bearing (mag) Surface Threshold Offset Overrun Length
04 148 ft / 45 m 6,418 ft / 1,956 m 22.56° 43.87° Asphalt 0 ft / 0 m 0 ft / 0 m
22 148 ft / 45 m 6,418 ft / 1,956 m 202.55° 223.86° Asphalt 0 ft / 0 m 0 ft / 0 m

Popular Alternatives